Regional Weather Roundup
Issued by NWS Upton, NY

Current Version | Previous Version | Text Only | Print | Product List | Glossary On
Versions: 1 2 3 4 5 6 7 8 9 10 11 12 13 14 15 16 17 18 19 20 21 22 23 24 25 26 27
000
ASUS41 KOKX 271409
RWROKX

REGIONAL WEATHER ROUNDUP
NATIONAL WEATHER SERVICE NEW YORK NY
1000 AM EDT TUE JUN 27 2017

NOTE: "FAIR" INDICATES FEW OR NO CLOUDS BELOW 12,000 FEET WITH NO
SIGNIFICANT WEATHER AND/OR OBSTRUCTIONS TO VISIBILITY.

NYZ071-072-176-178-NJZ106-104-271500-
NEW YORK CITY METRO AREA

CITY           SKY/WX    TMP DP  RH WIND       PRES   REMARKS
Central Park   CLOUDY    67  60  78 CALM      30.03S
Bronx Bot Gard   N/A     66  59  77 NE2       30.01S
LaGuardia APRT PTSUNNY   68  59  73 VRB5      30.00S
Kennedy INTL   PTSUNNY   71  61  70 W6        30.01S
Breezy Point     N/A     63 N/A N/A SW5         N/A
Newark/Liberty CLOUDY    67  59  75 SW7       30.01R
Teterboro      PTSUNNY   67  59  75 W8        30.00S
$$

NYZ177-179-078>081-271500-
LONG ISLAND NEW YORK

CITY           SKY/WX    TMP DP  RH WIND       PRES   REMARKS
Jones Beach      N/A     64 N/A N/A W3          N/A
Matinecock PT    N/A    N/A N/A N/A E5          N/A
Farmingdale    NOT AVBL
MacArthur/ISP  PTSUNNY   70  61  73 CALM      29.99R
Shirley        MOSUNNY   69  62  78 VRB6      29.99F
Mt Sinai Harb    N/A    N/A N/A N/A NE7         N/A
Westhampton    MOSUNNY   67  62  84 E9        29.99F
East Hampton   LGT RAIN  66  60  82 NW10G16   30.04R
Montauk          N/A     67  63  87 N5        30.05R
$$

NYZ052-065-067-271500-
HUDSON VALLEY

CITY           SKY/WX    TMP DP  RH WIND       PRES   REMARKS
White Plains   CLOUDY    65  59  81 W3        30.01R
Larchmont Harb   N/A     63 N/A N/A E5          N/A
Croton O-T Hud   N/A     64 N/A N/A CALM        N/A
Newburgh       PTSUNNY   64  59  82 CALM      30.02F
Montgomery     CLOUDY    65  57  75 S9        30.00F
Poughkeepsie   MOSUNNY   66  56  70 W6        29.98F
Albany         CLOUDY    62  56  80 VRB3      29.98F
$$

NJZ001-105-106-008-010-013-015-019>022-104-271500-
NEW JERSEY

CITY           SKY/WX    TMP DP  RH WIND       PRES   REMARKS
Newark/Liberty CLOUDY    67  59  75 SW7       30.01R
Teterboro      PTSUNNY   67  59  75 W8        30.00S
Caldwell       CLOUDY    66  59  78 CALM      30.02R
Somerville     CLOUDY    66  62  87 VRB3      29.99F
Linden         FAIR      67  59  76 CALM      30.01S
Perth Amboy      N/A     66 N/A N/A SW3         N/A
Sussex         CLOUDY    63  58  83 SW5       30.01F
Andover          N/A     63  56  78 VRB3      30.01F
Trenton        CLOUDY    65  61  87 SW3       30.01F
Millville      CLOUDY    66  62  87 CALM      30.02F
Atlantic City  NOT AVBL
Wrightstown    CLOUDY    65  62  88 S3        30.00S
Toms River     LGT RAIN  68  60  75 SW5       30.03R
Belmar         CLOUDY    67  60  78 W3        30.03R
$$

PAZ047>061-062-071-271500-
EASTERN PENNSYLVANIA

CITY           SKY/WX    TMP DP  RH WIND       PRES   REMARKS
Philadelphia   CLOUDY    67  60  78 S5        30.02F
Allentown      CLOUDY    67  56  67 NW8       30.02F
Scranton       MOSUNNY   62  55  77 VRB3      30.01F
$$

CTZ002-004>006-009-010-012-RIZ004-006-007-MAZ004-011-015-271500-
SOUTHERN NEW ENGLAND
 IN CT

CITY           SKY/WX    TMP DP  RH WIND       PRES   REMARKS
Bradley INTL   PTSUNNY   64  59  83 CALM      30.00F
Hartford       CLOUDY    63  58  83 SE3       29.99F
Danbury        PTSUNNY   66  59  77 CALM      30.02S
Wtrbury/Oxford PTSUNNY   66  55  68 S5        30.01S
Bridgeport     MOSUNNY   68  57  68 CALM      30.00R
Meriden        CLOUDY    65  59  81 CALM      29.99F
New Haven      MOSUNNY   67  60  78 E5        30.00S
Chester        FAIR      63  59  88 VRB3      30.01F
Groton         RAIN      65  57  75 N8        30.02S
Wilimantic     LGT RAIN  64  59  83 NE5       30.01F

 IN RI

CITY           SKY/WX    TMP DP  RH WIND       PRES   REMARKS
Providence     CLOUDY    67  63  87 W6        30.03R
Block Island   PTSUNNY   69  65  86 S9        30.03S
Westerly       CLOUDY    69  62  78 W5        30.04R
 IN MA

CITY           SKY/WX    TMP DP  RH WIND       PRES   REMARKS
Boston         CLOUDY    68  59  73 VRB6      30.01R
Worcester      LGT RAIN  58  53  84 W9        30.03F
Westfield      CLOUDY    63  58  83 S3        30.01F
Provincetown   MOSUNNY   70  63  78 S10       30.03R
Nantucket      MOSUNNY   68  65  90 S12       30.05R
$$

ANZ330-335-338-340-345-350-353-355-271500-
COASTAL MARINE OBSERVATIONS


STATION/POSITION TIME  SKY/WX   TEMP    WIND        PRES    VSBY  WAVE
                                AIR SEA DIR/SP/G                  HT/PER
                 (UTC)          (F)     (DEG/KT/KT) (MB)    (MI)  (FT/S)
NY HARB ENTRANCE 1350            64 67  330/  8/ 10 1016.3          2/ 7
20 S FIRE ISLAND 1350            67 70   90/ 10/ 12 1015.0          2/ 3
GREAT SOUTH BAY  1330            67 75   80/ 12/ 14   N/A
23 SSW MONTAUK P 1350            67 66              1016.6          2/ 6
15 E BARNEGAT LI 1330               65                N/A           2/ 7
HUDSON CANYON    1250            69 68  170/  8/ 10 1016.2          2/ 8
KINGS POINT      1342            63 66   10/  5/  6 1016.2
EXECUTION ROCKS  1345            65      20/  4/  6   N/A
CENTRAL LI SOUND NOT AVBL
EASTERN LI SOUND NOT AVBL
ROBBINS REEF     1342                   170/  4/  7 1016.9
$$


>>>>>>>>>>>>>>>>>>>>>>>>>>>> KEY <<<<<<<<<<<<<<<<<<<<<<<<<<<
>                                                          <
>     SKY/WX - Sky Condition/Present Weather               <
>     TMP    - Temperature in Fahrenheit                   <
>     DP     - Dew Point in Fahrenheit                     <
>     RH     - Relative Humidity in Percent                <
>     WIND   - Direction (from) and Speed in MPH           <
>     PRES   - Mean Sea Level Pressure (inches of Hg)      <
>     WCI    - Wind Chill Index                            <
>     VSB    - VISIBILITY IN MILES                         <
>     HX     - HEAT INDEX                                  <
>     TC     - TEMPERATURE IN CELSIUS                      <
>     VRB    - VARIABLE WIND DIRECTION                     <
>                                                          <
>>>>>>>>>>>>>>>>>>>>>>>>>>>> KEY <<<<<<<<<<<<<<<<<<<<<<<<<<<




USA.gov is the U.S. government's official web portal to all federal, state and local government web resources and services.